TIANZHOU-2

Last updated on Fri Apr 01 2022 00:02:05 GMT+0000 (Coordinated Universal Time)

1 48803U 21046A 22089.01423009 .00057763 00000+0 82686-3 0 9996 2 48803 41.4726 341.2290 0040878 197.7003 162.2413 15.54317761 47600

Satellite not in orbit

TIANZHOU-2